Location: Beugnon
(47.6222°N, 3.7850°E)
Time: 10:02:53
(UTC+00:00)

Cosmos 1570 Rocket - Pass Details

Date: 09 April 2020
Orbit: 764 x 787 km, 74.1° (Epoch: 06 June)

Event Time Altitude Azimuth Distance (km) Brightness Sun altitude
Rises 20:45:35 0° 338° (NNW) 3,292 8.3 -21.6°
Reaches altitude 10° 20:48:00 10° 341° (NNW) 2,357 7.4 -21.9°
Maximum altitude 20:53:21 71° 66° (ENE) 831 4.0 -22.6°
Enters shadow 20:54:24 56° 125° (SE) 933 4.0 -22.7°
